IW8RUI-5 Weather Reports


time (UTC)temp
C
wind
direction
speed
KPH
gust
KPH
rain 1hr
cm
rain 24hr
cm
rain mn
cm
humidity
%
barometer
mb
20260906071929 18 170 0.0 0.0 0.00 0.00 0.00 10 1015.0
20260906070932 18 164 0.0 0.0 0.00 0.00 0.00 10 1015.0
20260906065930 18 143 0.0 0.0 0.00 0.00 0.00 10 1015.0
20260906065429 17 145 0.0 0.0 0.00 0.00 0.00 10 1015.0
20260906064429 17 154 0.0 0.0 0.00 0.00 0.00 10 1015.0
20260906062429 17 145 0.0 0.0 0.00 0.00 0.00 10 1015.0
20260906060431 17 155 0.0 0.0 0.00 0.00 0.00 10 1015.0
20260906055929 17 153 0.0 0.0 0.00 0.00 0.00 10 1015.0
20260906054929 17 144 0.0 0.0 0.00 0.00 0.00 10 1015.0
20260906054430 17 169 0.0 0.0 0.00 0.00 0.00 10 1015.0
20260906053929 17 151 0.0 0.0 0.00 0.00 0.00 10 1015.0
20260906052929 17 162 0.0 0.0 0.00 0.00 0.00 10 1015.0
20260906052221 17 169 0.0 0.0 0.00 0.00 0.00 13 1015.0
20260906051929 17 169 0.0 0.0 0.00 0.00 0.00 13 1015.0
20260906051429 17 161 0.0 0.0 0.00 0.00 0.00 13 1015.0
20260906050929 17 152 0.0 0.0 0.00 0.00 0.00 13 1015.0
20260906050429 17 161 0.0 0.0 0.00 0.00 0.00 13 1015.0
20260906045929 17 143 0.0 0.0 0.00 0.00 0.00 13 1015.0
20260906045428 17 151 0.0 0.0 0.00 0.00 0.00 13 1015.0
20260906044928 17 143 0.0 0.0 0.00 0.00 0.00 13 1015.0
20260906044430 17 160 0.0 0.0 0.00 0.00 0.00 13 1015.0
20260906043428 17 157 0.0 0.0 0.00 0.00 0.00 13 1015.0
20260906042930 17 146 0.0 0.0 0.00 0.00 0.00 13 1015.0
20260906042431 17 170 0.0 0.0 0.00 0.00 0.00 13 1014.0
20260906041928 17 156 0.0 0.0 0.00 0.00 0.00 13 1014.0
20260906041429 17 168 0.0 0.0 0.00 0.00 0.00 13 1014.0
20260906040928 17 167 0.0 0.0 0.00 0.00 0.00 13 1014.0
20260906040430 17 169 0.0 0.0 0.00 0.00 0.00 13 1014.0
20260906035928 17 170 0.0 0.0 0.00 0.00 0.00 13 1014.0
20260906035429 17 156 0.0 0.0 0.00 0.00 0.00 13 1014.0
20260906034930 17 161 0.0 0.0 0.00 0.00 0.00 13 1014.0
20260906034429 17 158 0.0 0.0 0.00 0.00 0.00 13 1014.0
20260906033930 17 143 0.0 0.0 0.00 0.00 0.00 13 1014.0
20260906033429 17 161 0.0 0.0 0.00 0.00 0.00 13 1014.0
20260906032930 17 159 0.0 0.0 0.00 0.00 0.00 10 1014.0
20260906032431 17 148 0.0 0.0 0.00 0.00 0.00 10 1014.0
20260906031429 17 155 0.0 0.0 0.00 0.00 0.00 10 1014.0
20260906025928 17 143 0.0 0.0 0.00 0.00 0.00 10 1014.0
20260906023929 17 147 0.0 0.0 0.00 0.00 0.00 10 1015.0
20260906021928 17 146 0.0 0.0 0.00 0.00 0.00 10 1015.0
20260906021429 17 155 0.0 0.0 0.00 0.00 0.00 10 1015.0
20260906020430 17 144 0.0 0.0 0.00 0.00 0.00 10 1015.0
20260906015430 17 145 0.0 0.0 0.00 0.00 0.00 10 1015.0
20260906013429 17 168 0.0 0.0 0.00 0.00 0.00 10 1015.0
20260906010929 17 142 0.0 0.0 0.00 0.00 0.00 10 1015.0
20260906010429 17 146 0.0 0.0 0.00 0.00 0.00 10 1015.0
20260906004929 17 160 0.0 0.0 0.00 0.00 0.00 10 1015.0
20260906004429 17 166 0.0 0.0 0.00 0.00 0.00 10 1015.0
20260906002929 17 164 0.0 0.0 0.00 0.00 0.00 10 1015.0
20260906002429 18 142 0.0 0.0 0.00 0.00 0.00 10 1015.0
20260906001929 18 148 0.0 0.0 0.00 0.00 0.00 10 1015.0
20260906001429 18 143 0.0 0.0 0.00 0.00 0.00 10 1015.0
20260906000429 17 160 0.0 0.0 0.00 0.00 0.00 10 1015.0
20260905235929 18 169 0.0 0.0 0.00 0.00 0.00 10 1015.0
20260905235430 18 153 0.0 0.0 0.00 0.00 0.00 10 1015.0
20260905234929 18 161 0.0 0.0 0.00 0.00 0.00 10 1015.0
20260905234429 18 168 0.0 0.0 0.00 0.00 0.00 10 1015.0
20260905233929 18 161 0.0 0.0 0.00 0.00 0.00 10 1015.0
20260905233429 18 159 0.0 0.0 0.00 0.00 0.00 10 1015.0
20260905232929 18 168 0.0 0.0 0.00 0.00 0.00 10 1015.0
20260905232429 18 142 0.0 0.0 0.00 0.00 0.00 10 1015.0
20260905231931 17 154 0.0 0.0 0.00 0.00 0.00 10 1015.0
20260905203428 17 169 0.0 0.0 0.00 0.00 0.00 13 1015.0
20260905201928 18 152 0.0 0.0 0.00 0.00 0.00 13 1015.0
20260905195928 17 141 0.0 0.0 0.00 0.00 0.00 13 1015.0
20260905194929 17 168 0.0 0.0 0.00 0.00 0.00 13 1015.0
20260905193428 17 144 0.0 0.0 0.00 0.00 0.00 15 1015.0
20260905191428 18 142 0.0 0.0 0.00 0.00 0.00 15 1015.0
20260905185928 18 156 0.0 0.0 0.00 0.00 0.00 15 1015.0
20260905184931 18 142 0.0 0.0 0.00 0.00 0.00 15 1015.0
20260905181428 18 150 0.0 0.0 0.00 0.00 0.00 15 1015.0
20260905174429 19 143 0.0 0.0 0.00 0.00 0.00 15 1015.0
20260905165929 22 168 0.0 0.0 0.00 0.00 0.00 13 1015.0
20260905161929 25 145 0.0 0.0 0.00 0.00 0.00 12 1015.0
20260905161428 26 143 0.0 0.0 0.00 0.00 0.00 12 1015.0
20260905160428 26 144 0.0 0.0 0.00 0.00 0.00 12 1015.0
20260905155929 26 169 0.0 0.0 0.00 0.00 0.00 12 1015.0
20260905154928 26 149 0.0 0.0 0.00 0.00 0.00 12 1015.0
20260905154428 26 154 0.0 0.0 0.00 0.00 0.00 12 1015.0
20260905151929 25 145 0.0 0.0 0.00 0.00 0.00 12 1015.0
20260905150429 25 143 0.0 0.0 0.00 0.00 0.00 12 1015.0
20260905145936 25 147 0.0 0.0 0.00 0.00 0.00 12 1015.0
20260905144929 25 143 0.0 0.0 0.00 0.00 0.00 12 1015.0
20260905141929 26 154 0.0 0.0 0.00 0.00 0.00 12 1015.0
20260905141429 26 148 0.0 0.0 0.00 0.00 0.00 12 1015.0
20260905140929 26 164 0.0 0.0 0.00 0.00 0.00 12 1015.0
20260905135928 25 160 0.0 0.0 0.00 0.00 0.00 12 1015.0
20260905135429 25 167 0.0 0.0 0.00 0.00 0.00 12 1015.0
20260905134428 25 169 0.0 0.0 0.00 0.00 0.00 12 1015.0
20260905132428 25 143 0.0 0.0 0.00 0.00 0.00 13 1015.0
20260905130929 24 156 0.0 0.0 0.00 0.00 0.00 13 1015.0
20260905124429 24 146 0.0 0.0 0.00 0.00 0.00 13 1015.0
20260905123429 24 144 0.0 0.0 0.00 0.00 0.00 13 1015.0
20260905122927 23 150 0.0 0.0 0.00 0.00 0.00 13 1015.0
20260905122429 24 167 0.0 0.0 0.00 0.00 0.00 13 1015.0
20260905121929 24 165 0.0 0.0 0.00 0.00 0.00 13 1015.0
20260905120929 24 154 0.0 0.0 0.00 0.00 0.00 13 1015.0
20260905120429 24 169 0.0 0.0 0.00 0.00 0.00 13 1015.0
20260905115929 24 160 0.0 0.0 0.00 0.00 0.00 10 1015.0
20260905115429 23 163 0.0 0.0 0.00 0.00 0.00 10 1015.0
20260905114929 23 144 0.0 0.0 0.00 0.00 0.00 10 1015.0
20260905114429 23 147 0.0 0.0 0.00 0.00 0.00 10 1015.0
20260905113929 23 144 0.0 0.0 0.00 0.00 0.00 10 1015.0
20260905113429 23 142 0.0 0.0 0.00 0.00 0.00 10 1015.0
20260905111929 24 143 0.0 0.0 0.00 0.00 0.00 10 1015.0
20260905111429 23 157 0.0 0.0 0.00 0.00 0.00 10 1015.0
20260905110929 23 164 0.0 0.0 0.00 0.00 0.00 10 1015.0
20260905110429 23 146 0.0 0.0 0.00 0.00 0.00 10 1015.0
20260905105929 24 164 0.0 0.0 0.00 0.00 0.00 10 1015.0
20260905101929 23 151 0.0 0.0 0.00 0.00 0.00 10 1015.0
20260905100427 23 145 0.0 0.0 0.00 0.00 0.00 10 1015.0
20260905095929 23 169 0.0 0.0 0.00 0.00 0.00 10 1015.0
20260905095429 23 169 0.0 0.0 0.00 0.00 0.00 10 1015.0
20260905094929 23 155 0.0 0.0 0.00 0.00 0.00 10 1015.0
20260905094429 23 146 0.0 0.0 0.00 0.00 0.00 10 1015.0
20260905093929 23 156 0.0 0.0 0.00 0.00 0.00 10 1015.0
20260905093429 23 171 0.0 0.0 0.00 0.00 0.00 13 1015.0
20260905092929 23 153 0.0 0.0 0.00 0.00 0.00 13 1015.0
20260905092429 23 170 0.0 0.0 0.00 0.00 0.00 13 1015.0
20260905091927 23 170 0.0 0.0 0.00 0.00 0.00 13 1015.0
20260905091429 23 146 0.0 0.0 0.00 0.00 0.00 13 1015.0
20260905090929 23 158 0.0 0.0 0.00 0.00 0.00 13 1015.0
20260905085929 22 144 0.0 0.0 0.00 0.00 0.00 13 1015.0
20260905085427 22 169 0.0 0.0 0.00 0.00 0.00 13 1015.0
20260905084927 22 152 0.0 0.0 0.00 0.00 0.00 13 1015.0
20260905084430 22 169 0.0 0.0 0.00 0.00 0.00 13 1015.0
20260905083929 22 170 0.0 0.0 0.00 0.00 0.00 14 1015.0
20260905083427 22 171 0.0 0.0 0.00 0.00 0.00 14 1015.0
20260905082927 21 143 0.0 0.0 0.00 0.00 0.00 14 1015.0
20260905082429 21 169 0.0 0.0 0.00 0.00 0.00 14 1015.0
20260905081929 21 151 0.0 0.0 0.00 0.00 0.00 14 1015.0
20260905081429 21 144 0.0 0.0 0.00 0.00 0.00 12 1015.0
20260905080929 21 150 0.0 0.0 0.00 0.00 0.00 12 1015.0
20260905080427 20 149 0.0 0.0 0.00 0.00 0.00 12 1015.0